TimeCST,TemperatureF,Dew PointF,Humidity,Sea Level PressureIn,VisibilityMPH,Wind Direction,Wind SpeedMPH,Gust SpeedMPH,PrecipitationIn,Events,Conditions,WindDirDegrees,DateUTC
12:54 AM,30.0,21.9,72,29.96,10.0,South,11.5,-,N/A,,Clear,190,2012-11-25 06:54:00
1:54 AM,30.0,21.9,72,29.95,10.0,South,9.2,-,N/A,,Clear,190,2012-11-25 07:54:00
2:54 AM,30.0,23.0,75,29.92,10.0,SSW,8.1,-,N/A,,Partly Cloudy,200,2012-11-25 08:54:00
3:54 AM,30.9,21.9,69,29.91,10.0,SSW,9.2,-,N/A,,Partly Cloudy,210,2012-11-25 09:54:00
4:54 AM,32.0,21.9,66,29.90,10.0,SW,6.9,-,N/A,,Clear,220,2012-11-25 10:54:00
5:54 AM,30.9,23.0,72,29.90,10.0,SW,5.8,-,N/A,,Clear,220,2012-11-25 11:54:00
6:54 AM,30.9,23.0,72,29.91,10.0,SW,3.5,-,N/A,,Clear,230,2012-11-25 12:54:00
7:54 AM,32.0,24.1,73,29.92,10.0,Calm,Calm,-,N/A,,Clear,0,2012-11-25 13:54:00
8:54 AM,36.0,26.1,67,29.94,10.0,WSW,3.5,-,N/A,,Clear,250,2012-11-25 14:54:00
9:54 AM,39.9,25.0,55,29.94,10.0,WNW,8.1,-,N/A,,Clear,300,2012-11-25 15:54:00
10:54 AM,43.0,25.0,49,29.94,10.0,Variable,4.6,-,N/A,,Clear,0,2012-11-25 16:54:00
11:54 AM,45.0,27.0,49,29.93,10.0,Variable,5.8,-,N/A,,Mostly Cloudy,0,2012-11-25 17:54:00
12:54 PM,46.0,27.0,47,29.93,10.0,West,4.6,-,N/A,,Partly Cloudy,280,2012-11-25 18:54:00
1:54 PM,46.0,27.0,47,29.93,10.0,WNW,8.1,-,N/A,,Partly Cloudy,300,2012-11-25 19:54:00
2:54 PM,45.0,26.1,48,29.94,10.0,NW,5.8,-,N/A,,Overcast,310,2012-11-25 20:54:00
3:54 PM,44.1,26.1,49,29.96,10.0,WNW,4.6,-,N/A,,Partly Cloudy,300,2012-11-25 21:54:00
4:54 PM,43.0,27.0,53,29.98,10.0,Calm,Calm,-,N/A,,Overcast,0,2012-11-25 22:54:00
5:54 PM,42.1,25.0,51,30.00,10.0,North,3.5,-,N/A,,Overcast,350,2012-11-25 23:54:00
6:54 PM,41.0,25.0,53,30.02,10.0,North,6.9,-,N/A,,Overcast,10,2012-11-26 00:54:00
7:54 PM,39.9,26.1,58,30.05,10.0,Calm,Calm,-,N/A,,Overcast,0,2012-11-26 01:54:00
8:54 PM,39.0,25.0,57,30.06,10.0,Calm,Calm,-,N/A,,Mostly Cloudy,0,2012-11-26 02:54:00
9:54 PM,37.9,26.1,62,30.09,10.0,Calm,Calm,-,N/A,,Mostly Cloudy,0,2012-11-26 03:54:00
10:54 PM,37.9,26.1,62,30.10,10.0,Calm,Calm,-,N/A,,Overcast,0,2012-11-26 04:54:00
11:54 PM,36.0,25.0,64,30.12,10.0,North,3.5,-,N/A,,Partly Cloudy,10,2012-11-26 05:54:00